Home   Weather   Lindlar   Past weeks

Flag for Germany Past Weather in Lindlar, North Rhine-Westphalia, Germany — Yesterday and Last 2 Weeks

Now
64 °F

Sunny.


Feels Like: 64 °F
Forecast: 47 / 64 °F
Wind: 14 mph from Southeast

Location: Koeln / Bonn

Current Time: Sep 25, 2016 at 11:02:23 AM

Latest Report: Sep 25, 2016 at 10:20 AM


Visibility: 10 mi

Pressure: 30.07 "Hg

Humidity: 60%

Dew Point: 50 °F

Location of LindlarLocation

Past Weather in Lindlar — Graph

°F

Lindlar Temperature Yesterday

Maximum temperature yesterday: 75 °F (at 1:50 PM)
Minimum temperature yesterday: 46 °F (at 4:50 AM)
Average temperature yesterday: 61 °F

High & Low Weather Summary for the Past Weeks

 TemperatureHumidityPressure
High90 °F (Sep 13, 2:50 PM)100% (Sep 11, 2:50 AM)30.30 "Hg (Sep 11, 2:50 AM)
Low43 °F (Sep 22, 2:50 AM)29% (Sep 14, 4:20 PM)29.80 "Hg (Sep 15, 12:50 PM)
Average65 °F71%30.04 "Hg
* Reported Sep 10 9:20 AM — Sep 25 9:50 AM, Lindlar, Weather by CustomWeather, © 2016

Note: Actual official high and low records may vary slightly from our data, if they occured in-between our weather recording intervals... More about our weather records

Advertising

Lindlar Weather History for the Previous 24 Hours

Scroll right to see more
 ConditionsComfort  
Time TempWeatherWind HumidityBarometerVisibility
9:50 AM
Sun, Sep 25
63 °FSunny.15 mph64%30.07 "Hg10 mi
9:20 AM61 °FSunny.13 mph68%30.07 "Hg10 mi
8:50 AM57 °FSunny.8 mph77%30.07 "Hg10 mi
8:20 AM55 °FPassing clouds.6 mph77%30.07 "HgN/A
7:50 AM55 °FSunny.8 mph77%30.07 "Hg10 mi
7:20 AM55 °FClear.9 mph77%30.07 "Hg10 mi
6:50 AM55 °FPassing clouds.10 mph77%30.07 "HgN/A
6:20 AM57 °FClear.10 mph72%30.07 "Hg10 mi
5:50 AM55 °FClear.9 mph77%30.09 "Hg10 mi
5:20 AM55 °FClear.9 mph77%30.09 "Hg10 mi
4:50 AM55 °FClear.9 mph77%30.09 "Hg10 mi
4:20 AM55 °FClear.9 mph77%30.09 "Hg10 mi
3:50 AM55 °FClear.7 mph77%30.09 "Hg10 mi
3:20 AM55 °FClear.8 mph77%30.09 "Hg10 mi
2:50 AM57 °FClear.8 mph72%30.12 "Hg10 mi
2:20 AM57 °FPassing clouds.7 mph72%30.12 "HgN/A
1:50 AM57 °FPassing clouds.7 mph72%30.12 "HgN/A
1:20 AM57 °FPassing clouds.8 mph72%30.12 "HgN/A
12:50 AM59 °FClear.8 mph68%30.12 "Hg10 mi
12:20 AM59 °FPassing clouds.6 mph68%30.12 "HgN/A
11:50 PM
Sat, Sep 24
59 °FClear.6 mph68%30.15 "Hg10 mi
11:20 PM61 °FPassing clouds.6 mph63%30.15 "HgN/A
10:50 PM63 °FPassing clouds.7 mph59%30.15 "HgN/A
10:20 PM63 °FClear.7 mph56%30.15 "Hg10 mi
9:50 PM63 °FClear.7 mph56%30.15 "Hg10 mi
9:20 PM64 °FPassing clouds.7 mph52%30.15 "HgN/A
8:50 PM64 °FClear.8 mph56%30.15 "Hg10 mi
8:20 PM66 °FClear.7 mph52%30.15 "Hg10 mi
7:50 PM68 °FClear.7 mph49%30.15 "Hg10 mi
7:20 PM68 °FSunny.7 mph53%30.15 "Hg10 mi
6:50 PM72 °FSunny.7 mph47%30.15 "Hg10 mi
6:20 PM73 °FPassing clouds.9 mph44%30.15 "HgN/A
5:50 PM73 °FPassing clouds.10 mph41%30.15 "HgN/A
5:20 PM73 °FPassing clouds.10 mph38%30.18 "HgN/A
4:50 PM75 °FPassing clouds.10 mph36%30.18 "HgN/A
4:20 PM75 °FPassing clouds.10 mph39%30.18 "HgN/A
3:50 PM75 °FPassing clouds.9 mph39%30.21 "HgN/A
3:20 PM75 °FPassing clouds.8 mph39%30.21 "HgN/A
2:50 PM75 °FPassing clouds.7 mph36%30.21 "HgN/A
2:20 PM75 °FSunny.7 mph36%30.24 "Hg10 mi
1:50 PM75 °FSunny.5 mph44%30.24 "Hg10 mi
1:20 PM73 °FScattered clouds.7 mph44%30.27 "HgN/A
12:50 PM72 °FScattered clouds.6 mph53%30.27 "HgN/A
12:20 PM70 °FScattered clouds.7 mph57%30.27 "HgN/A
11:50 AM68 °FScattered clouds.6 mph60%30.27 "HgN/A
11:20 AM66 °FPassing clouds.3 mph64%30.27 "HgN/A
Weather by CustomWeather, © 2016

See weather overviewHow to use our weather pages